Kosmos-2350

operational
NORAD ID: 25315 Int'l Des: 1998-025 Owner: PVO Country: RU
HEOCIRCULARGSO

Kosmos-2350について

説明を読み込み中...

リアルタイム位置

3D地球を読み込み中...

次回通過

高度履歴

Altitude vs Time

uPlot chart will show altitude changes over time

軌道要素

1 25315U 98025A 26062.55586169 -.00000093 00000-0 00000-0 0 9994
2 25315 13.9245 4.6151 0004678 195.2030 233.6846 1.00284445101950
Epoch: Mar 3, 2026 • Age: 32 hours

現在のステータス

高度 35801.2 km
速度 3.07 km/s
衛星直下点 -1.60°S, 72.33°E
打ち上げ日 Apr 29, 1998
運用期間 27.8 years
タイプ other

技術仕様

分類 Payload
質量 2200.00 kg
乾燥質量 2100.00 kg
総質量 2200.00 kg
長さ 5.00 m
直径 2.00 m
スパン 10.00 m
形状 Step Cyl + 2 Pan
製造者 NPOL/KOMET
バスタイプ Prognoz
フェーズステータス In Orbit
所有者/国 PVO/RU

大規模コンステレーション

Loading constellations...